Time,TemperatureF,DewpointF,PressureIn,WindDirection,WindDirectionDegrees,WindSpeedMPH,WindSpeedGustMPH,Humidity,HourlyPrecipIn,Conditions,Clouds,dailyrainin,SoftwareType,DateUTC
2013-08-20 00:04:00,70.2,65.1,29.97,South,180,4.0,7.0,84,0.00,,,0.00,meteohub,2013-08-20 05:04:00,
2013-08-20 00:09:00,70.0,65.3,29.96,South,180,4.0,7.0,85,0.00,,,0.00,meteohub,2013-08-20 05:09:00,
2013-08-20 00:14:00,70.2,65.5,29.97,SE,135,4.0,6.0,85,0.00,,,0.00,meteohub,2013-08-20 05:14:00,
2013-08-20 00:19:00,70.2,65.5,29.97,East,90,4.0,6.0,85,0.00,,,0.00,meteohub,2013-08-20 05:19:00,
2013-08-20 00:24:00,70.2,65.5,29.97,SE,135,4.0,6.0,85,0.00,,,0.00,meteohub,2013-08-20 05:24:00,
2013-08-20 00:30:00,70.2,65.5,29.97,East,90,4.0,8.0,85,0.00,,,0.00,meteohub,2013-08-20 05:30:00,
2013-08-20 00:35:00,70.2,65.5,29.97,East,90,4.0,8.0,85,0.00,,,0.00,meteohub,2013-08-20 05:35:00,
2013-08-20 00:40:00,70.0,65.7,29.97,SE,135,5.0,8.0,86,0.00,,,0.00,meteohub,2013-08-20 05:40:00,
2013-08-20 00:45:00,70.0,65.7,29.97,SE,135,5.0,6.0,86,0.00,,,0.00,meteohub,2013-08-20 05:45:00,
2013-08-20 00:50:00,70.0,65.7,29.97,SE,135,6.0,6.0,86,0.00,,,0.00,meteohub,2013-08-20 05:50:00,
2013-08-20 00:55:00,69.8,65.5,29.97,East,90,4.0,6.0,86,0.00,,,0.00,meteohub,2013-08-20 05:55:00,
2013-08-20 01:00:00,69.6,65.8,29.97,East,90,4.0,6.0,88,0.00,,,0.00,meteohub,2013-08-20 06:00:00,
2013-08-20 01:05:00,69.6,65.8,29.97,East,90,4.0,6.0,88,0.00,,,0.00,meteohub,2013-08-20 06:05:00,
2013-08-20 01:10:00,69.4,66.0,29.97,SE,135,5.0,6.0,89,0.00,,,0.00,meteohub,2013-08-20 06:10:00,
2013-08-20 01:15:00,69.4,66.0,29.96,SE,135,6.0,7.0,89,0.00,,,0.00,meteohub,2013-08-20 06:15:00,
2013-08-20 01:20:00,69.3,65.8,29.97,South,180,4.0,7.0,89,0.00,,,0.00,meteohub,2013-08-20 06:20:00,
2013-08-20 01:25:00,69.1,66.0,29.97,East,90,8.0,8.0,90,0.00,,,0.00,meteohub,2013-08-20 06:25:00,
2013-08-20 01:30:00,69.1,66.0,29.97,South,180,4.0,8.0,90,0.00,,,0.00,meteohub,2013-08-20 06:30:00,
2013-08-20 01:35:00,68.9,65.8,29.97,South,180,4.0,8.0,90,0.00,,,0.00,meteohub,2013-08-20 06:35:00,
2013-08-20 01:40:00,68.7,66.0,29.97,SW,225,4.0,8.0,91,0.00,,,0.00,meteohub,2013-08-20 06:40:00,
2013-08-20 01:45:00,68.5,65.8,29.97,SW,225,4.0,5.0,91,0.00,,,0.00,meteohub,2013-08-20 06:45:00,
2013-08-20 01:50:00,68.4,65.7,29.97,South,180,1.0,5.0,91,0.00,,,0.00,meteohub,2013-08-20 06:50:00,
2013-08-20 01:55:00,68.4,66.0,29.97,SE,135,4.0,4.0,92,0.00,,,0.00,meteohub,2013-08-20 06:55:00,
2013-08-20 02:00:00,68.4,66.0,29.97,South,180,2.0,4.0,92,0.00,,,0.00,meteohub,2013-08-20 07:00:00,
2013-08-20 02:05:00,68.2,65.8,29.97,South,180,2.0,4.0,92,0.00,,,0.00,meteohub,2013-08-20 07:05:00,
2013-08-20 02:10:00,68.0,65.7,29.96,South,180,4.0,4.0,92,0.00,,,0.00,meteohub,2013-08-20 07:10:00,
2013-08-20 02:15:00,68.0,65.8,29.97,SE,135,2.0,6.0,93,0.00,,,0.00,meteohub,2013-08-20 07:15:00,
2013-08-20 02:20:00,67.8,66.0,29.97,SE,135,2.0,6.0,94,0.00,,,0.00,meteohub,2013-08-20 07:20:00,
2013-08-20 02:26:00,67.8,66.0,29.97,SW,225,2.0,6.0,94,0.00,,,0.00,meteohub,2013-08-20 07:26:00,
2013-08-20 02:31:00,67.8,66.0,29.97,South,180,3.0,4.0,94,0.00,,,0.00,meteohub,2013-08-20 07:31:00,
2013-08-20 02:36:00,67.8,66.0,29.97,South,180,2.0,6.0,94,0.00,,,0.00,meteohub,2013-08-20 07:36:00,
2013-08-20 02:41:00,67.6,65.8,29.97,South,180,2.0,6.0,94,0.00,,,0.00,meteohub,2013-08-20 07:41:00,
2013-08-20 02:46:00,67.8,66.0,29.97,East,90,2.0,6.0,94,0.00,,,0.00,meteohub,2013-08-20 07:46:00,
2013-08-20 02:51:00,67.8,66.0,29.97,South,180,3.0,4.0,94,0.00,,,0.00,meteohub,2013-08-20 07:51:00,
2013-08-20 02:56:00,67.8,66.0,29.97,West,270,4.0,5.0,94,0.00,,,0.00,meteohub,2013-08-20 07:56:00,
2013-08-20 03:01:00,68.0,65.8,29.96,SW,225,5.0,6.0,93,0.00,,,0.00,meteohub,2013-08-20 08:01:00,
2013-08-20 03:06:00,68.0,65.8,29.96,SW,225,5.0,6.0,93,0.00,,,0.00,meteohub,2013-08-20 08:06:00,
2013-08-20 03:11:00,68.0,65.8,29.97,SW,225,4.0,6.0,93,0.00,,,0.00,meteohub,2013-08-20 08:11:00,
2013-08-20 03:16:00,68.0,65.8,29.97,South,180,1.0,5.0,93,0.00,,,0.00,meteohub,2013-08-20 08:16:00,
2013-08-20 03:21:00,67.8,66.0,29.97,South,180,3.0,5.0,94,0.00,,,0.00,meteohub,2013-08-20 08:21:00,
2013-08-20 03:26:00,67.6,65.8,29.97,SW,225,2.0,5.0,94,0.00,,,0.00,meteohub,2013-08-20 08:26:00,
2013-08-20 03:31:00,67.5,65.7,29.97,South,180,4.0,4.0,94,0.00,,,0.00,meteohub,2013-08-20 08:31:00,
2013-08-20 03:36:00,67.5,65.7,29.97,SW,225,4.0,4.0,94,0.00,,,0.00,meteohub,2013-08-20 08:36:00,
2013-08-20 03:41:00,67.3,65.8,29.97,WNW,293,4.0,4.0,95,0.00,,,0.00,meteohub,2013-08-20 08:41:00,
2013-08-20 03:46:00,67.5,66.0,29.97,South,180,4.0,4.0,95,0.00,,,0.00,meteohub,2013-08-20 08:46:00,
2013-08-20 03:51:00,67.5,66.0,29.97,South,180,2.0,4.0,95,0.00,,,0.00,meteohub,2013-08-20 08:51:00,
2013-08-20 03:56:00,67.5,66.0,29.97,SW,225,4.0,4.0,95,0.00,,,0.00,meteohub,2013-08-20 08:56:00,
2013-08-20 04:01:00,67.6,66.2,29.97,SE,135,4.0,5.0,95,0.00,,,0.00,meteohub,2013-08-20 09:01:00,
2013-08-20 04:06:00,67.6,66.2,29.97,South,180,4.0,5.0,95,0.00,,,0.00,meteohub,2013-08-20 09:06:00,
2013-08-20 04:11:00,67.6,65.8,29.97,SW,225,6.0,6.0,94,0.00,,,0.00,meteohub,2013-08-20 09:11:00,
2013-08-20 04:16:00,67.6,65.8,29.97,SE,135,2.0,6.0,94,0.00,,,0.00,meteohub,2013-08-20 09:16:00,
2013-08-20 04:21:00,67.5,65.7,29.97,South,180,3.0,6.0,94,0.00,,,0.00,meteohub,2013-08-20 09:21:00,
2013-08-20 04:26:00,67.5,65.7,29.97,SW,225,4.0,8.0,94,0.00,,,0.00,meteohub,2013-08-20 09:26:00,
2013-08-20 04:32:00,67.3,65.5,29.97,South,180,3.0,8.0,94,0.00,,,0.00,meteohub,2013-08-20 09:32:00,
2013-08-20 04:37:00,67.1,65.3,29.97,South,180,4.0,8.0,94,0.00,,,0.00,meteohub,2013-08-20 09:37:00,
2013-08-20 04:42:00,66.9,65.5,29.97,SE,135,4.0,5.0,95,0.00,,,0.00,meteohub,2013-08-20 09:42:00,
2013-08-20 04:47:00,66.7,65.3,29.97,SE,135,4.0,5.0,95,0.00,,,0.00,meteohub,2013-08-20 09:47:00,
2013-08-20 04:52:00,66.7,65.3,29.97,South,180,2.0,5.0,95,0.00,,,0.00,meteohub,2013-08-20 09:52:00,
2013-08-20 04:57:00,66.6,65.1,29.97,South,180,2.0,6.0,95,0.00,,,0.00,meteohub,2013-08-20 09:57:00,
2013-08-20 05:02:00,66.4,64.9,29.98,SW,225,4.0,6.0,95,0.00,,,0.00,meteohub,2013-08-20 10:02:00,
2013-08-20 05:07:00,66.4,64.9,29.98,SW,225,4.0,4.0,95,0.00,,,0.00,meteohub,2013-08-20 10:07:00,
2013-08-20 05:12:00,66.2,64.9,29.98,SE,135,3.0,4.0,96,0.00,,,0.00,meteohub,2013-08-20 10:12:00,
2013-08-20 05:17:00,66.2,64.9,29.98,SW,225,2.0,4.0,96,0.00,,,0.00,meteohub,2013-08-20 10:17:00,
2013-08-20 05:22:00,66.2,64.9,29.98,SW,225,4.0,4.0,96,0.00,,,0.00,meteohub,2013-08-20 10:22:00,
2013-08-20 05:27:00,66.2,64.9,29.98,East,90,2.0,4.0,96,0.00,,,0.00,meteohub,2013-08-20 10:27:00,
2013-08-20 05:32:00,66.0,65.1,29.99,SE,135,2.0,6.0,97,0.00,,,0.00,meteohub,2013-08-20 10:32:00,
2013-08-20 05:37:00,66.0,65.1,29.99,NW,315,6.0,6.0,97,0.00,,,0.00,meteohub,2013-08-20 10:37:00,
2013-08-20 05:42:00,66.2,65.3,29.99,South,180,4.0,7.0,97,0.00,,,0.00,meteohub,2013-08-20 10:42:00,
2013-08-20 05:47:00,66.2,65.3,29.99,SE,135,2.0,7.0,97,0.00,,,0.00,meteohub,2013-08-20 10:47:00,
2013-08-20 05:52:00,66.0,65.1,29.99,SE,135,4.0,7.0,97,0.00,,,0.00,meteohub,2013-08-20 10:52:00,
2013-08-20 05:57:00,66.0,65.1,29.99,SW,225,2.0,4.0,97,0.00,,,0.00,meteohub,2013-08-20 10:57:00,
2013-08-20 06:02:00,65.8,64.9,29.99,South,180,2.0,4.0,97,0.00,,,0.00,meteohub,2013-08-20 11:02:00,
2013-08-20 06:07:00,65.7,64.8,29.99,South,180,1.0,4.0,97,0.00,,,0.00,meteohub,2013-08-20 11:07:00,
2013-08-20 06:12:00,65.7,65.1,29.99,SE,135,3.0,4.0,98,0.00,,,0.00,meteohub,2013-08-20 11:12:00,
2013-08-20 06:17:00,65.7,65.1,29.99,South,180,3.0,8.0,98,0.00,,,0.00,meteohub,2013-08-20 11:17:00,
2013-08-20 06:22:00,65.7,65.1,29.99,SE,135,4.0,8.0,98,0.00,,,0.00,meteohub,2013-08-20 11:22:00,
2013-08-20 06:27:00,65.5,64.9,30.00,South,180,3.0,8.0,98,0.00,,,0.00,meteohub,2013-08-20 11:27:00,
2013-08-20 06:32:00,65.5,64.9,30.00,South,180,2.0,8.0,98,0.00,,,0.00,meteohub,2013-08-20 11:32:00,
2013-08-20 06:37:00,65.5,64.9,30.00,SE,135,5.0,5.0,98,0.00,,,0.00,meteohub,2013-08-20 11:37:00,
2013-08-20 06:42:00,65.7,65.1,30.00,South,180,2.0,5.0,98,0.00,,,0.00,meteohub,2013-08-20 11:42:00,
2013-08-20 06:47:00,65.7,65.1,30.00,SW,225,2.0,5.0,98,0.00,,,0.00,meteohub,2013-08-20 11:47:00,
2013-08-20 06:52:00,65.7,65.1,30.00,East,90,3.0,5.0,98,0.00,,,0.00,meteohub,2013-08-20 11:52:00,
2013-08-20 06:57:00,65.7,65.1,30.00,SW,225,4.0,4.0,98,0.00,,,0.00,meteohub,2013-08-20 11:57:00,
2013-08-20 07:02:00,65.8,65.3,30.00,South,180,2.0,6.0,98,0.00,,,0.00,meteohub,2013-08-20 12:02:00,
2013-08-20 07:07:00,66.2,65.3,30.00,South,180,4.0,6.0,97,0.00,,,0.00,meteohub,2013-08-20 12:07:00,
2013-08-20 07:12:00,66.4,65.5,30.00,SE,135,2.0,6.0,97,0.00,,,0.00,meteohub,2013-08-20 12:12:00,
2013-08-20 07:17:00,66.4,65.5,30.01,South,180,4.0,4.0,97,0.00,,,0.00,meteohub,2013-08-20 12:17:00,
2013-08-20 07:22:00,66.6,65.7,30.01,South,180,4.0,4.0,97,0.00,,,0.00,meteohub,2013-08-20 12:22:00,
2013-08-20 07:27:00,66.9,66.0,30.01,South,180,4.0,4.0,97,0.00,,,0.00,meteohub,2013-08-20 12:27:00,
2013-08-20 07:32:00,67.1,66.2,30.00,West,270,3.0,4.0,97,0.00,,,0.00,meteohub,2013-08-20 12:32:00,
2013-08-20 07:37:00,67.5,66.2,30.01,South,180,4.0,4.0,96,0.00,,,0.00,meteohub,2013-08-20 12:37:00,
2013-08-20 07:42:00,67.6,66.4,30.01,South,180,4.0,7.0,96,0.00,,,0.00,meteohub,2013-08-20 12:42:00,
2013-08-20 07:47:00,67.8,66.6,30.01,SW,225,3.0,7.0,96,0.00,,,0.00,meteohub,2013-08-20 12:47:00,
2013-08-20 07:52:00,68.0,66.2,30.01,SE,135,2.0,7.0,94,0.00,,,0.00,meteohub,2013-08-20 12:52:00,
2013-08-20 07:57:00,68.2,66.4,30.01,SW,225,3.0,6.0,94,0.00,,,0.00,meteohub,2013-08-20 12:57:00,
2013-08-20 08:02:00,68.5,66.7,30.01,South,180,5.0,6.0,94,0.00,,,0.00,meteohub,2013-08-20 13:02:00,
2013-08-20 08:07:00,68.7,66.6,30.01,South,180,4.0,6.0,93,0.00,,,0.00,meteohub,2013-08-20 13:07:00,
2013-08-20 08:12:00,68.9,66.7,30.01,SE,135,5.0,5.0,93,0.00,,,0.00,meteohub,2013-08-20 13:12:00,
2013-08-20 08:17:00,69.3,67.1,30.01,South,180,5.0,6.0,93,0.00,,,0.00,meteohub,2013-08-20 13:17:00,
2013-08-20 08:22:00,69.4,67.1,30.01,SE,135,4.0,9.0,92,0.00,,,0.00,meteohub,2013-08-20 13:22:00,
2013-08-20 08:27:00,69.8,67.1,30.01,SE,135,6.0,9.0,91,0.00,,,0.00,meteohub,2013-08-20 13:27:00,
2013-08-20 08:32:00,70.0,66.9,30.01,SE,135,7.0,9.0,90,0.00,,,0.00,meteohub,2013-08-20 13:32:00,
2013-08-20 08:37:00,70.0,66.6,30.02,South,180,6.0,9.0,89,0.00,,,0.00,meteohub,2013-08-20 13:37:00,
2013-08-20 08:42:00,70.3,66.9,30.02,South,180,6.0,9.0,89,0.00,,,0.00,meteohub,2013-08-20 13:42:00,
2013-08-20 08:47:00,70.5,66.7,30.01,South,180,8.0,9.0,88,0.00,,,0.00,meteohub,2013-08-20 13:47:00,
2013-08-20 08:52:00,70.9,67.1,30.01,SE,135,8.0,9.0,88,0.00,,,0.00,meteohub,2013-08-20 13:52:00,
2013-08-20 08:57:00,71.1,66.9,30.01,South,180,8.0,9.0,87,0.00,,,0.00,meteohub,2013-08-20 13:57:00,
2013-08-20 09:02:00,71.8,67.1,30.01,SE,135,7.0,9.0,85,0.00,,,0.00,meteohub,2013-08-20 14:02:00,
2013-08-20 09:07:00,72.1,67.1,30.01,South,180,6.0,9.0,84,0.00,,,0.00,meteohub,2013-08-20 14:07:00,
2013-08-20 09:12:00,72.7,67.6,30.01,SE,135,7.0,9.0,84,0.00,,,0.00,meteohub,2013-08-20 14:12:00,
2013-08-20 09:17:00,73.4,68.2,30.01,South,180,6.0,9.0,84,0.00,,,0.00,meteohub,2013-08-20 14:17:00,
2013-08-20 09:22:00,73.4,67.6,30.01,South,180,6.0,9.0,82,0.00,,,0.00,meteohub,2013-08-20 14:22:00,
2013-08-20 09:27:00,73.6,68.2,30.00,SE,135,7.0,9.0,83,0.00,,,0.00,meteohub,2013-08-20 14:27:00,
2013-08-20 09:32:00,74.1,68.2,30.01,West,270,4.0,9.0,82,0.00,,,0.00,meteohub,2013-08-20 14:32:00,
2013-08-20 09:37:00,74.7,68.0,30.01,NE,45,7.0,9.0,80,0.00,,,0.00,meteohub,2013-08-20 14:37:00,
2013-08-20 09:42:00,75.0,68.0,30.01,South,180,7.0,10.0,79,0.00,,,0.00,meteohub,2013-08-20 14:42:00,
2013-08-20 09:47:00,75.0,68.0,30.01,South,180,6.0,10.0,79,0.00,,,0.00,meteohub,2013-08-20 14:47:00,
2013-08-20 09:52:00,75.6,67.8,30.01,SW,225,8.0,10.0,77,0.00,,,0.00,meteohub,2013-08-20 14:52:00,
2013-08-20 09:57:00,75.4,67.6,30.00,South,180,6.0,9.0,77,0.00,,,0.00,meteohub,2013-08-20 14:57:00,
2013-08-20 10:02:00,76.1,68.7,30.00,SW,225,10.0,10.0,78,0.00,,,0.00,meteohub,2013-08-20 15:02:00,
2013-08-20 10:07:00,76.3,68.5,30.00,South,180,8.0,10.0,77,0.00,,,0.00,meteohub,2013-08-20 15:07:00,
2013-08-20 10:12:00,77.0,68.5,30.00,South,180,5.0,10.0,75,0.00,,,0.00,meteohub,2013-08-20 15:12:00,
2013-08-20 10:17:00,77.5,68.9,30.00,SW,225,7.0,10.0,75,0.00,,,0.00,meteohub,2013-08-20 15:17:00,
2013-08-20 10:22:00,77.9,69.3,30.00,South,180,7.0,8.0,75,0.00,,,0.00,meteohub,2013-08-20 15:22:00,
2013-08-20 10:27:00,77.9,68.9,30.00,SW,225,8.0,8.0,74,0.00,,,0.00,meteohub,2013-08-20 15:27:00,
2013-08-20 10:32:00,78.1,68.7,30.00,SE,135,9.0,9.0,73,0.00,,,0.00,meteohub,2013-08-20 15:32:00,
2013-08-20 10:37:00,78.1,67.8,30.00,South,180,9.0,10.0,71,0.00,,,0.00,meteohub,2013-08-20 15:37:00,
2013-08-20 10:42:00,78.4,68.7,30.00,SE,135,7.0,10.0,72,0.00,,,0.00,meteohub,2013-08-20 15:42:00,
2013-08-20 10:47:00,78.6,68.0,30.00,SE,135,6.0,10.0,70,0.00,,,0.00,meteohub,2013-08-20 15:47:00,
2013-08-20 10:52:00,79.0,68.0,29.99,SW,225,11.0,11.0,69,0.00,,,0.00,meteohub,2013-08-20 15:52:00,
2013-08-20 10:57:00,79.2,68.2,29.99,South,180,6.0,14.0,69,0.00,,,0.00,meteohub,2013-08-20 15:57:00,
2013-08-20 11:02:00,79.7,67.8,29.99,South,180,6.0,15.0,67,0.00,,,0.00,meteohub,2013-08-20 16:02:00,
2013-08-20 11:07:00,80.4,68.9,29.99,South,180,13.0,15.0,68,0.00,,,0.00,meteohub,2013-08-20 16:07:00,
2013-08-20 11:13:00,80.2,67.5,29.99,SE,135,12.0,13.0,65,0.00,,,0.00,meteohub,2013-08-20 16:13:00,
2013-08-20 11:18:00,80.1,67.3,29.99,South,180,5.0,13.0,65,0.00,,,0.00,meteohub,2013-08-20 16:18:00,
2013-08-20 11:23:00,80.4,67.6,29.99,SE,135,8.0,13.0,65,0.00,,,0.00,meteohub,2013-08-20 16:23:00,
2013-08-20 11:28:00,81.0,67.6,29.98,SE,135,9.0,12.0,64,0.00,,,0.00,meteohub,2013-08-20 16:28:00,
2013-08-20 11:33:00,81.3,68.0,29.99,SE,135,9.0,13.0,64,0.00,,,0.00,meteohub,2013-08-20 16:33:00,
2013-08-20 11:38:00,81.1,67.3,29.99,South,180,8.0,13.0,63,0.00,,,0.00,meteohub,2013-08-20 16:38:00,
2013-08-20 11:43:00,82.0,68.2,29.98,SW,225,6.0,13.0,63,0.00,,,0.00,meteohub,2013-08-20 16:43:00,
2013-08-20 11:48:00,82.2,68.4,29.98,South,180,8.0,11.0,63,0.00,,,0.00,meteohub,2013-08-20 16:48:00,
2013-08-20 11:53:00,81.9,67.1,29.98,SW,225,8.0,11.0,61,0.00,,,0.00,meteohub,2013-08-20 16:53:00,
2013-08-20 11:58:00,81.9,67.1,29.98,SW,225,12.0,14.0,61,0.00,,,0.00,meteohub,2013-08-20 16:58:00,
2013-08-20 12:03:00,81.5,66.7,29.98,SW,225,8.0,17.0,61,0.00,,,0.00,meteohub,2013-08-20 17:03:00,
2013-08-20 12:08:00,82.2,67.8,29.98,SW,225,16.0,17.0,62,0.00,,,0.00,meteohub,2013-08-20 17:08:00,
2013-08-20 12:14:00,82.2,67.5,29.98,South,180,9.0,17.0,61,0.00,,,0.00,meteohub,2013-08-20 17:14:00,
2013-08-20 12:19:00,82.9,67.6,29.98,South,180,8.0,17.0,60,0.00,,,0.00,meteohub,2013-08-20 17:19:00,
2013-08-20 12:24:00,83.3,67.5,29.97,East,90,8.0,17.0,59,0.00,,,0.00,meteohub,2013-08-20 17:24:00,
2013-08-20 12:29:00,83.1,66.7,29.96,SW,225,5.0,15.0,58,0.00,,,0.00,meteohub,2013-08-20 17:29:00,
2013-08-20 12:34:00,83.3,66.6,29.96,SE,135,6.0,15.0,57,0.00,,,0.00,meteohub,2013-08-20 17:34:00,
2013-08-20 12:39:00,83.3,66.9,29.96,South,180,10.0,15.0,58,0.00,,,0.00,meteohub,2013-08-20 17:39:00,
2013-08-20 12:44:00,83.1,66.7,29.96,SW,225,11.0,12.0,58,0.00,,,0.00,meteohub,2013-08-20 17:44:00,
2013-08-20 12:49:00,83.3,66.9,29.96,SW,225,11.0,12.0,58,0.00,,,0.00,meteohub,2013-08-20 17:49:00,
2013-08-20 12:54:00,83.8,67.5,29.96,South,180,8.0,12.0,58,0.00,,,0.00,meteohub,2013-08-20 17:54:00,
2013-08-20 12:59:00,82.9,65.7,29.96,South,180,10.0,12.0,56,0.00,,,0.00,meteohub,2013-08-20 17:59:00,
2013-08-20 13:04:00,83.1,66.4,29.96,South,180,11.0,15.0,57,0.00,,,0.00,meteohub,2013-08-20 18:04:00,
2013-08-20 13:09:00,83.1,65.8,29.96,South,180,15.0,17.0,56,0.00,,,0.00,meteohub,2013-08-20 18:09:00,
2013-08-20 13:14:00,83.7,66.4,29.96,SW,225,9.0,17.0,56,0.00,,,0.00,meteohub,2013-08-20 18:14:00,
2013-08-20 13:19:00,84.2,65.7,29.96,SW,225,12.0,17.0,54,0.00,,,0.00,meteohub,2013-08-20 18:19:00,
2013-08-20 13:24:00,84.0,66.2,29.96,SE,135,11.0,17.0,55,0.00,,,0.00,meteohub,2013-08-20 18:24:00,
2013-08-20 13:29:00,84.4,66.4,29.96,South,180,11.0,17.0,55,0.00,,,0.00,meteohub,2013-08-20 18:29:00,
2013-08-20 13:34:00,84.2,65.7,29.95,SW,225,11.0,14.0,54,0.00,,,0.00,meteohub,2013-08-20 18:34:00,
2013-08-20 13:39:00,84.0,66.2,29.95,SW,225,15.0,15.0,55,0.00,,,0.00,meteohub,2013-08-20 18:39:00,
2013-08-20 13:44:00,83.8,66.4,29.95,SW,225,13.0,16.0,56,0.00,,,0.00,meteohub,2013-08-20 18:44:00,
2013-08-20 13:50:00,84.0,67.1,29.95,SW,225,15.0,16.0,57,0.00,,,0.00,meteohub,2013-08-20 18:50:00,
2013-08-20 13:55:00,83.8,66.4,29.95,SW,225,17.0,17.0,56,0.00,,,0.00,meteohub,2013-08-20 18:55:00,
2013-08-20 14:00:00,83.8,66.0,29.95,SW,225,12.0,15.0,55,0.00,,,0.00,meteohub,2013-08-20 19:00:00,
2013-08-20 14:05:00,84.4,65.8,29.95,South,180,13.0,18.0,54,0.00,,,0.00,meteohub,2013-08-20 19:05:00,
2013-08-20 14:10:00,84.7,65.7,29.95,South,180,11.0,18.0,53,0.00,,,0.00,meteohub,2013-08-20 19:10:00,
2013-08-20 14:15:00,84.7,66.2,29.95,SE,135,6.0,16.0,54,0.00,,,0.00,meteohub,2013-08-20 19:15:00,
2013-08-20 14:20:00,84.4,65.8,29.95,South,180,8.0,14.0,54,0.00,,,0.00,meteohub,2013-08-20 19:20:00,
2013-08-20 14:25:00,84.6,64.9,29.94,South,180,11.0,18.0,52,0.00,,,0.00,meteohub,2013-08-20 19:25:00,
2013-08-20 14:30:00,85.1,65.5,29.94,SW,225,9.0,18.0,52,0.00,,,0.00,meteohub,2013-08-20 19:30:00,
2013-08-20 14:35:00,85.3,66.2,29.94,SW,225,8.0,18.0,53,0.00,,,0.00,meteohub,2013-08-20 19:35:00,
2013-08-20 14:40:00,85.1,65.5,29.94,SW,225,5.0,14.0,52,0.00,,,0.00,meteohub,2013-08-20 19:40:00,
2013-08-20 14:45:00,85.1,66.0,29.94,South,180,8.0,14.0,53,0.00,,,0.00,meteohub,2013-08-20 19:45:00,
2013-08-20 14:50:00,84.9,65.8,29.94,SE,135,12.0,13.0,53,0.00,,,0.00,meteohub,2013-08-20 19:50:00,
2013-08-20 14:55:00,84.9,65.8,29.94,SW,225,15.0,15.0,53,0.00,,,0.00,meteohub,2013-08-20 19:55:00,
2013-08-20 15:00:00,84.9,65.8,29.94,SW,225,10.0,15.0,53,0.00,,,0.00,meteohub,2013-08-20 20:00:00,
2013-08-20 15:05:00,85.5,66.4,29.93,SW,225,11.0,15.0,53,0.00,,,0.00,meteohub,2013-08-20 20:05:00,
2013-08-20 15:10:00,85.6,66.6,29.93,West,270,8.0,15.0,53,0.00,,,0.00,meteohub,2013-08-20 20:10:00,
2013-08-20 15:16:00,86.0,65.8,29.93,South,180,8.0,15.0,51,0.00,,,0.00,meteohub,2013-08-20 20:16:00,
2013-08-20 15:21:00,85.8,66.2,29.93,SW,225,17.0,17.0,52,0.00,,,0.00,meteohub,2013-08-20 20:21:00,
2013-08-20 15:26:00,85.8,66.7,29.93,SW,225,12.0,17.0,53,0.00,,,0.00,meteohub,2013-08-20 20:26:00,
2013-08-20 15:31:00,85.3,66.2,29.93,SE,135,8.0,17.0,53,0.00,,,0.00,meteohub,2013-08-20 20:31:00,
2013-08-20 15:36:00,84.9,65.8,29.93,NW,315,11.0,17.0,53,0.00,,,0.00,meteohub,2013-08-20 20:36:00,
2013-08-20 15:41:00,84.2,64.6,29.93,South,180,7.0,14.0,52,0.00,,,0.00,meteohub,2013-08-20 20:41:00,
2013-08-20 15:46:00,85.3,66.7,29.92,SW,225,6.0,11.0,54,0.00,,,0.00,meteohub,2013-08-20 20:46:00,
2013-08-20 15:51:00,85.5,66.4,29.93,SW,225,5.0,15.0,53,0.00,,,0.00,meteohub,2013-08-20 20:51:00,
2013-08-20 15:56:00,85.8,67.3,29.93,South,180,7.0,15.0,54,0.00,,,0.00,meteohub,2013-08-20 20:56:00,
2013-08-20 16:01:00,85.8,65.7,29.93,SE,135,13.0,15.0,51,0.00,,,0.00,meteohub,2013-08-20 21:01:00,
2013-08-20 16:06:00,84.9,65.8,29.93,South,180,10.0,13.0,53,0.00,,,0.00,meteohub,2013-08-20 21:06:00,
2013-08-20 16:11:00,85.5,66.9,29.93,SE,135,9.0,13.0,54,0.00,,,0.00,meteohub,2013-08-20 21:11:00,
2013-08-20 16:16:00,85.6,66.0,29.92,South,180,9.0,13.0,52,0.00,,,0.00,meteohub,2013-08-20 21:16:00,
2013-08-20 16:21:00,85.1,66.0,29.92,SW,225,6.0,13.0,53,0.00,,,0.00,meteohub,2013-08-20 21:21:00,
2013-08-20 16:26:00,84.2,65.7,29.92,SE,135,7.0,13.0,54,0.00,,,0.00,meteohub,2013-08-20 21:26:00,
2013-08-20 16:31:00,84.2,66.2,29.92,South,180,9.0,13.0,55,0.00,,,0.00,meteohub,2013-08-20 21:31:00,
2013-08-20 16:37:00,84.0,66.6,29.92,SW,225,10.0,15.0,56,0.00,,,0.00,meteohub,2013-08-20 21:37:00,
2013-08-20 16:42:00,84.2,66.2,29.92,SE,135,6.0,15.0,55,0.00,,,0.00,meteohub,2013-08-20 21:42:00,
2013-08-20 16:47:00,84.6,66.6,29.92,SW,225,15.0,15.0,55,0.00,,,0.00,meteohub,2013-08-20 21:47:00,
2013-08-20 16:52:00,84.4,65.8,29.92,SE,135,7.0,15.0,54,0.00,,,0.00,meteohub,2013-08-20 21:52:00,
2013-08-20 16:57:00,84.4,65.3,29.92,South,180,11.0,15.0,53,0.00,,,0.00,meteohub,2013-08-20 21:57:00,
2013-08-20 17:02:00,84.2,65.3,29.92,SW,225,4.0,15.0,53,0.00,,,0.00,meteohub,2013-08-20 22:02:00,
2013-08-20 17:07:00,84.2,65.7,29.92,South,180,9.0,15.0,54,0.00,,,0.00,meteohub,2013-08-20 22:07:00,
2013-08-20 17:12:00,84.4,65.3,29.92,SW,225,8.0,15.0,53,0.00,,,0.00,meteohub,2013-08-20 22:12:00,
2013-08-20 17:17:00,84.2,65.3,29.91,South,180,11.0,15.0,53,0.00,,,0.00,meteohub,2013-08-20 22:17:00,
2013-08-20 17:22:00,84.4,65.8,29.92,SW,225,5.0,11.0,54,0.00,,,0.00,meteohub,2013-08-20 22:22:00,
2013-08-20 17:27:00,84.4,65.3,29.91,East,90,13.0,13.0,53,0.00,,,0.00,meteohub,2013-08-20 22:27:00,
2013-08-20 17:32:00,84.0,66.2,29.91,SE,135,6.0,13.0,55,0.00,,,0.00,meteohub,2013-08-20 22:32:00,
2013-08-20 17:37:00,84.2,65.7,29.91,WSW,248,8.0,13.0,54,0.00,,,0.00,meteohub,2013-08-20 22:37:00,
2013-08-20 17:42:00,84.0,66.2,29.91,South,180,12.0,13.0,55,0.00,,,0.00,meteohub,2013-08-20 22:42:00,
2013-08-20 17:47:00,83.8,66.0,29.91,South,180,10.0,12.0,55,0.00,,,0.00,meteohub,2013-08-20 22:47:00,
2013-08-20 17:52:00,83.7,65.8,29.92,South,180,9.0,12.0,55,0.00,,,0.00,meteohub,2013-08-20 22:52:00,
2013-08-20 17:57:00,83.5,66.2,29.92,South,180,12.0,12.0,56,0.00,,,0.00,meteohub,2013-08-20 22:57:00,
2013-08-20 18:02:00,83.3,66.0,29.92,South,180,11.0,12.0,56,0.00,,,0.00,meteohub,2013-08-20 23:02:00,
2013-08-20 18:07:00,83.3,66.6,29.92,SE,135,9.0,12.0,57,0.00,,,0.00,meteohub,2013-08-20 23:07:00,
2013-08-20 18:12:00,82.9,66.2,29.91,SW,225,8.0,12.0,57,0.00,,,0.00,meteohub,2013-08-20 23:12:00,
2013-08-20 18:17:00,82.9,66.2,29.91,East,90,8.0,13.0,57,0.00,,,0.00,meteohub,2013-08-20 23:17:00,
2013-08-20 18:22:00,82.8,66.0,29.92,SE,135,9.0,13.0,57,0.00,,,0.00,meteohub,2013-08-20 23:22:00,
2013-08-20 18:27:00,82.6,65.8,29.92,SE,135,4.0,13.0,57,0.00,,,0.00,meteohub,2013-08-20 23:27:00,
2013-08-20 18:32:00,82.6,66.4,29.91,South,180,4.0,12.0,58,0.00,,,0.00,meteohub,2013-08-20 23:32:00,
2013-08-20 18:37:00,82.2,66.4,29.91,South,180,4.0,12.0,59,0.00,,,0.00,meteohub,2013-08-20 23:37:00,
2013-08-20 18:42:00,82.0,66.4,29.92,SW,225,5.0,10.0,59,0.00,,,0.00,meteohub,2013-08-20 23:42:00,
2013-08-20 18:47:00,81.9,66.6,29.92,SW,225,4.0,10.0,60,0.00,,,0.00,meteohub,2013-08-20 23:47:00,
2013-08-20 18:52:00,81.7,66.4,29.92,South,180,6.0,10.0,60,0.00,,,0.00,meteohub,2013-08-20 23:52:00,
2013-08-20 18:57:00,81.3,66.6,29.92,SW,225,4.0,9.0,61,0.00,,,0.00,meteohub,2013-08-20 23:57:00,
2013-08-20 19:02:00,81.1,66.4,29.92,SE,135,7.0,9.0,61,0.00,,,0.00,meteohub,2013-08-21 00:02:00,
2013-08-20 19:07:00,80.6,66.4,29.93,SE,135,8.0,9.0,62,0.00,,,0.00,meteohub,2013-08-21 00:07:00,
2013-08-20 19:12:00,80.4,66.2,29.93,SE,135,6.0,9.0,62,0.00,,,0.00,meteohub,2013-08-21 00:12:00,
2013-08-20 19:17:00,80.2,66.6,29.92,SE,135,8.0,9.0,63,0.00,,,0.00,meteohub,2013-08-21 00:17:00,
2013-08-20 19:22:00,80.1,66.4,29.92,SE,135,7.0,11.0,63,0.00,,,0.00,meteohub,2013-08-21 00:22:00,
2013-08-20 19:27:00,79.7,66.0,29.92,SE,135,6.0,11.0,63,0.00,,,0.00,meteohub,2013-08-21 00:27:00,
2013-08-20 19:32:00,79.5,66.2,29.92,South,180,4.0,11.0,64,0.00,,,0.00,meteohub,2013-08-21 00:32:00,
2013-08-20 19:37:00,79.2,65.8,29.93,SE,135,6.0,11.0,64,0.00,,,0.00,meteohub,2013-08-21 00:37:00,
2013-08-20 19:42:00,78.8,66.0,29.92,South,180,3.0,10.0,65,0.00,,,0.00,meteohub,2013-08-21 00:42:00,
2013-08-20 19:47:00,78.4,66.2,29.93,SE,135,5.0,10.0,66,0.00,,,0.00,meteohub,2013-08-21 00:47:00,
2013-08-20 19:52:00,78.3,66.4,29.93,SE,135,2.0,10.0,67,0.00,,,0.00,meteohub,2013-08-21 00:52:00,
2013-08-20 19:57:00,78.1,66.2,29.93,South,180,6.0,8.0,67,0.00,,,0.00,meteohub,2013-08-21 00:57:00,
2013-08-20 20:02:00,77.9,66.6,29.93,West,270,2.0,8.0,68,0.00,,,0.00,meteohub,2013-08-21 01:02:00,
2013-08-20 20:07:00,77.5,66.2,29.94,South,180,5.0,8.0,68,0.00,,,0.00,meteohub,2013-08-21 01:07:00,
2013-08-20 20:12:00,77.4,66.0,29.94,SE,135,3.0,6.0,68,0.00,,,0.00,meteohub,2013-08-21 01:12:00,
2013-08-20 20:17:00,77.2,65.8,29.94,SW,225,4.0,5.0,68,0.00,,,0.00,meteohub,2013-08-21 01:17:00,
2013-08-20 20:21:00,77.0,65.7,29.94,South,180,4.0,5.0,68,0.00,,,0.00,meteohub,2013-08-21 01:21:00,
2013-08-20 20:26:00,77.0,65.7,29.94,SE,135,4.0,4.0,68,0.00,,,0.00,meteohub,2013-08-21 01:26:00,
2013-08-20 20:31:00,76.8,65.8,29.94,South,180,6.0,7.0,69,0.00,,,0.00,meteohub,2013-08-21 01:31:00,
2013-08-20 20:36:00,76.8,65.8,29.94,South,180,6.0,7.0,69,0.00,,,0.00,meteohub,2013-08-21 01:36:00,
2013-08-20 20:41:00,76.5,66.0,29.94,SE,135,5.0,7.0,70,0.00,,,0.00,meteohub,2013-08-21 01:41:00,
2013-08-20 20:46:00,76.5,66.0,29.94,SE,135,5.0,7.0,70,0.00,,,0.00,meteohub,2013-08-21 01:46:00,
2013-08-20 20:51:00,76.5,66.0,29.95,ESE,113,4.0,7.0,70,0.00,,,0.00,meteohub,2013-08-21 01:51:00,
2013-08-20 20:56:00,76.3,65.8,29.95,SE,135,8.0,8.0,70,0.00,,,0.00,meteohub,2013-08-21 01:56:00,
2013-08-20 21:01:00,76.3,65.8,29.95,South,180,6.0,8.0,70,0.00,,,0.00,meteohub,2013-08-21 02:01:00,
2013-08-20 21:06:00,76.1,66.0,29.95,SE,135,5.0,8.0,71,0.00,,,0.00,meteohub,2013-08-21 02:06:00,
2013-08-20 21:11:00,75.7,65.7,29.95,South,180,5.0,8.0,71,0.00,,,0.00,meteohub,2013-08-21 02:11:00,
2013-08-20 21:16:00,75.6,65.8,29.95,SE,135,8.0,8.0,72,0.00,,,0.00,meteohub,2013-08-21 02:16:00,
2013-08-20 21:22:00,75.6,65.8,29.95,SE,135,4.0,8.0,72,0.00,,,0.00,meteohub,2013-08-21 02:22:00,
2013-08-20 21:27:00,75.4,65.7,29.95,ESE,113,6.0,8.0,72,0.00,,,0.00,meteohub,2013-08-21 02:27:00,
2013-08-20 21:32:00,75.4,66.2,29.95,East,90,6.0,8.0,73,0.00,,,0.00,meteohub,2013-08-21 02:32:00,
2013-08-20 21:37:00,75.2,66.0,29.94,SE,135,4.0,8.0,73,0.00,,,0.00,meteohub,2013-08-21 02:37:00,
2013-08-20 21:42:00,75.0,66.6,29.95,SE,135,4.0,8.0,75,0.00,,,0.00,meteohub,2013-08-21 02:42:00,
2013-08-20 21:47:00,74.8,66.4,29.96,SE,135,6.0,8.0,75,0.00,,,0.00,meteohub,2013-08-21 02:47:00,
2013-08-20 21:52:00,74.8,66.4,29.95,SE,135,4.0,6.0,75,0.00,,,0.00,meteohub,2013-08-21 02:52:00,
2013-08-20 21:57:00,74.7,66.6,29.96,NNE,23,4.0,6.0,76,0.00,,,0.00,meteohub,2013-08-21 02:57:00,
2013-08-20 22:02:00,74.7,66.6,29.96,SE,135,4.0,6.0,76,0.00,,,0.00,meteohub,2013-08-21 03:02:00,
2013-08-20 22:07:00,74.7,66.6,29.96,SE,135,6.0,7.0,76,0.00,,,0.00,meteohub,2013-08-21 03:07:00,
2013-08-20 22:12:00,74.7,66.6,29.96,South,180,4.0,7.0,76,0.00,,,0.00,meteohub,2013-08-21 03:12:00,
2013-08-20 22:17:00,74.7,66.9,29.96,SE,135,6.0,9.0,77,0.00,,,0.00,meteohub,2013-08-21 03:17:00,
2013-08-20 22:22:00,74.7,66.9,29.96,South,180,9.0,9.0,77,0.00,,,0.00,meteohub,2013-08-21 03:22:00,
2013-08-20 22:27:00,74.7,66.9,29.96,SE,135,7.0,9.0,77,0.00,,,0.00,meteohub,2013-08-21 03:27:00,
2013-08-20 22:32:00,74.7,66.9,29.96,South,180,7.0,9.0,77,0.00,,,0.00,meteohub,2013-08-21 03:32:00,
2013-08-20 22:37:00,74.5,66.7,29.96,SE,135,4.0,9.0,77,0.00,,,0.00,meteohub,2013-08-21 03:37:00,
2013-08-20 22:42:00,74.5,66.7,29.96,SE,135,4.0,9.0,77,0.00,,,0.00,meteohub,2013-08-21 03:42:00,
2013-08-20 22:47:00,74.3,66.9,29.96,South,180,6.0,9.0,78,0.00,,,0.00,meteohub,2013-08-21 03:47:00,
2013-08-20 22:52:00,74.3,66.9,29.96,South,180,5.0,9.0,78,0.00,,,0.00,meteohub,2013-08-21 03:52:00,
2013-08-20 22:57:00,74.3,66.9,29.96,SE,135,7.0,8.0,78,0.00,,,0.00,meteohub,2013-08-21 03:57:00,
2013-08-20 23:01:00,74.1,66.7,29.96,West,270,9.0,9.0,78,0.00,,,0.00,meteohub,2013-08-21 04:01:00,
2013-08-20 23:02:00,74.1,66.7,29.96,SE,135,3.0,8.0,78,0.00,,,0.00,meteohub,2013-08-21 04:02:00,
2013-08-20 23:03:00,74.1,66.7,29.96,East,90,4.0,8.0,78,0.00,,,0.00,meteohub,2013-08-21 04:03:00,
2013-08-20 23:05:00,73.9,67.1,29.96,SE,135,5.0,8.0,79,0.00,,,0.00,meteohub,2013-08-21 04:05:00,
2013-08-20 23:10:00,73.9,67.1,29.96,SE,135,6.0,9.0,79,0.00,,,0.00,meteohub,2013-08-21 04:10:00,
2013-08-20 23:14:00,73.9,67.1,29.96,South,180,4.0,9.0,79,0.00,,,0.00,meteohub,2013-08-21 04:14:00,
2013-08-20 23:19:00,73.8,66.9,29.96,SE,135,8.0,9.0,79,0.00,,,0.00,meteohub,2013-08-21 04:19:00,
2013-08-20 23:24:00,73.8,67.3,29.96,SE,135,6.0,8.0,80,0.00,,,0.00,meteohub,2013-08-21 04:24:00,
2013-08-20 23:29:00,73.8,67.3,29.96,SE,135,7.0,8.0,80,0.00,,,0.00,meteohub,2013-08-21 04:29:00,
2013-08-20 23:34:00,73.6,67.1,29.96,South,180,6.0,8.0,80,0.00,,,0.00,meteohub,2013-08-21 04:34:00,
2013-08-20 23:39:00,73.6,67.1,29.96,SE,135,8.0,8.0,80,0.00,,,0.00,meteohub,2013-08-21 04:39:00,
2013-08-20 23:44:00,73.6,67.5,29.96,South,180,8.0,8.0,81,0.00,,,0.00,meteohub,2013-08-21 04:44:00,
2013-08-20 23:49:00,73.4,67.3,29.96,South,180,7.0,8.0,81,0.00,,,0.00,meteohub,2013-08-21 04:49:00,
2013-08-20 23:55:00,73.4,67.3,29.96,SE,135,7.0,9.0,81,0.00,,,0.00,meteohub,2013-08-21 04:55:00,